PEGASUS DEB

Satellite information

Favourite Embed

Satellite Type and Status

DEBRISIN ORBIT

Key statistics

Satellite PEGASUS DEB at a glance.

Uptime

11435

Days in orbit

Revolutions

≈ 15.1

Per day

Orbit

LEO

Low Earth Orbit

Inclination

82.2

Latest

Satellite identification and parameters

Extended collection of information and parameters for PEGASUS DEB.

Object identification

Identified? True

Debris? True

Object name: PEGASUS DEB

International designator: 1994-029HQ

Object number (NORAD): 24165

Object ID (CCSDS): 24165

Country: UNITED STATES OF AMERICA (US)

Current information (Y/N): Y

RCS size: SMALL

Orbital parameters

Period: 95.192 minutes

Inclination: 82.1539 deg

SMA: 6906.017 km

Apoapsis: 590.055 km

Periapsis: 465.709 km

RAAN: 65.9747 deg

Eccentricy: 0.00900277

Argument of periapsis: 231.0311 deg

Mean anomaly: 128.2875 deg

Mean motion: 15.12729622 rev/day

Mean motion (dot): 0.0005617 rev/day2

B* drag term: 0.0028846516 1/REarth

Two-line elements (TLE)

Creation date: Sept. 8, 2025, 3:16 a.m.

Reference frame: TEME

Reference center: EARTH

Epoch: Sept. 7, 2025, 9:23 p.m. UTC

TLE line 0: 0 PEGASUS DEB

TLE line 1: 1 24165U 94029HQ 25250.89098556 .00056170 00000-0 28847-2 0 9996

TLE line 2: 2 24165 82.1539 65.9747 0090028 231.0311 128.2875 15.12729622518101

Live tracking on map

Real-time ground track for satellite PEGASUS DEB.

In-orbit conjunctions

A list of the most updated potential collisions computed for object PEGASUS DEB.

Target Orbit TCA Probability of collision Miss distance Type
ELECTRON KICK STAGE R/B SSO 2025-06-02 12:43:34 0.0001971139 268.0 (m) ROCKET BODY
ERS 1 DEB SSO 2024-09-11 02:44:20 0.0003349889 45.0 (m) DEBRIS

Associated space launch

PEGASUS DEB was lifted into orbit during the mission ‘Pegasus HAPS | Space Test Experiments Platform 2 (STEP-2)’, on board a Pegasus HAPS space rocket.

The launch took place on May 19, 1994, 5:03 p.m. from Edwards Air Force Base.

For more information about the launch, click the button.

Launch to space Pegasus HAPS | Space Test Experiments Platform 2 (STEP-2)
Pegasus HAPS | Space Test Experiments Platform 2 (STEP-2)

Agency: N/A

Status: Launch Successful

Launch date: May 19, 1994, 5:03 p.m. UTC

Rocket: Pegasus HAPS

Launch pad: Edwards Air Force Base

Location: Air launch to orbit

...

Latest news about this satellite

There are no fresh news available about this satellite. Check back as we update our databases every day.


Newsletter sign-up

Weekly statistics, charts and insights to help you stay on top of the space industry.